Location: Powder Track
(41.8531°N, 72.3584°W)
Time: 21:56:23
(UTC+00:00)

Vanguard 2 Rocket - Pass Details

Date: 03 August 2021
Orbit: 555 x 3324 km, 32.9° (Epoch: 18 September)

Event Time Altitude Azimuth Distance (km) Brightness Sun altitude
Rises 10:11:50 0° 215° (SW) 3,591 9.5 3.7°
Reaches altitude 10° 10:16:30 10° 184° (S) 2,200 8.7 4.5°
Maximum altitude 10:18:11 12° 163° (SSE) 1,964 8.7 4.8°
Drops below altitude 10° 10:19:44 10° 142° (SE) 1,975 8.9 5.1°
Sets 10:23:16 0° 107° (ESE) 2,737 10.4 5.7°
